BEIDOU-3 M14

Last updated on Thu Nov 21 2024 00:02:31 GMT+0000 (Coordinated Universal Time)

1 43623U 18072B 24325.39693995 -.00000019 00000+0 00000+0 0 9994 2 43623 56.1258 81.6689 0002426 335.7406 24.2302 1.86231042 41967
UTC large
Height (km)
Speed (km/s)
/
Latitude / Longitude
Inclination (degrees)
Orbital Period (minutes)
Azimuth
Elevation
Range (km)
Doppler Factor

Next 0 passes for location: London (51.5072 / 0.1276)

Sorry there are no passes over London.